Weather History for KBTR - February, 2013

Change the Weather History Date:

Wednesday, February 20, 2013

  Actual Average Record
Temperature  
Mean Temperature 50 °F 56 °F  
Max Temperature 60 °F 67 °F 87 °F (1917)
Min Temperature 39 °F 46 °F 25 °F (1908)
Degree Days  
Heating Degree Days 15 9  
Month to date heating degree days 191 227  
Since 1 July heating degree days 1109 1267  
Cooling Degree Days 0 1  
Month to date cooling degree days 4 18  
Year to date cooling degree days 25 31  
Moisture  
Dew Point 31 °F    
Average Humidity 46    
Maximum Humidity 64    
Minimum Humidity 28    
Precipitation  
Precipitation 0.00 in 0.17 in 2.25 in (1919)
Month to date precipitation 4.90 3.70  
Year to date precipitation 19.57 9.42  
Snow  
Snow 0.00 in - - ()
Month to date snowfall 0.0  
Since 1 July snowfall 0.0  
Snow Depth 0.00 in    
Sea Level Pressure  
Sea Level Pressure 30.13 in    
Wind  
Wind Speed 10 mph (East)    
Max Wind Speed 18 mph    
Max Gust Speed 23 mph    
Visibility 10 miles    
Events      
T = Trace of Precipitation, MM = Missing Value Source: NWS Daily Summary

Daily Weather History Graph

Daily Weather History Graph

Search for Another Location

Airport or City:

Trip Planner

Search our weather history database for the weather conditions in past years. The results will help you decide how hot, cold, wet, or windy it might be!

Date:

Astronomy

Feb. 20, 2013 Rise Set
Actual Time 6:40 AM CST 5:56 PM CST
Civil Twilight 6:15 AM CST 6:21 PM CST
Nautical Twilight 5:47 AM CST 6:49 PM CST
Astronomical Twilight 5:19 AM CST 7:17 PM CST
Moon 1:30 PM CST (2/20) 2:48 AM CST (2/20)
Length of Visible Light 12h 05m
Length of Day
11h 16m
Waxing Gibbous, 76% of the Moon is Illuminated
Feb 20
Waxing Gibbous
Feb 25
Full
Mar 4
Last Quarter
Mar 11
New
Mar 19
First Quarter

Hourly Weather History & Observations

Time (CST) Temp. Windchill Dew Point Humidity Pressure Visibility Wind Dir Wind Speed Gust Speed Precip Events Conditions
12:53 AM 45.0 °F 40.1 °F 32.0 °F 60% 30.23 in 10.0 mi ENE 9.2 mph - N/A   Clear
1:53 AM 46.0 °F 41.4 °F 30.9 °F 56% 30.22 in 10.0 mi ENE 9.2 mph - N/A   Clear
2:53 AM 45.0 °F 39.3 °F 30.0 °F 56% 30.18 in 10.0 mi ENE 11.5 mph - N/A   Clear
3:53 AM 45.0 °F 41.2 °F 27.0 °F 49% 30.18 in 10.0 mi ENE 6.9 mph - N/A   Clear
4:53 AM 44.1 °F 40.1 °F 25.0 °F 47% 30.20 in 10.0 mi ENE 6.9 mph - N/A   Clear
5:53 AM 42.8 °F 40.1 °F 26.6 °F 53% 30.23 in 10.0 mi ENE 4.6 mph - N/A   Clear
6:53 AM 39.0 °F 34.8 °F 28.9 °F 67% 30.23 in 10.0 mi ENE 5.8 mph - N/A   Clear
7:53 AM 44.1 °F 39.5 °F 30.0 °F 58% 30.25 in 10.0 mi ENE 8.1 mph - N/A   Clear
8:53 AM 48.0 °F - 27.0 °F 44% 30.25 in 10.0 mi East 12.7 mph - N/A   Mostly Cloudy
9:53 AM 50.0 °F - 26.6 °F 40% 30.24 in 10.0 mi ENE 15.0 mph - N/A   Clear
10:53 AM 53.1 °F - 26.1 °F 35% 30.20 in 10.0 mi ENE 18.4 mph - N/A   Clear
11:53 AM 55.9 °F - 27.0 °F 33% 30.17 in 10.0 mi East 12.7 mph 17.3 mph N/A   Clear
12:53 PM 57.0 °F - 27.0 °F 32% 30.14 in 10.0 mi East 10.4 mph - N/A   Clear
1:53 PM 59.0 °F - 27.0 °F 29% 30.11 in 10.0 mi ENE 8.1 mph - N/A   Clear
2:53 PM 59.0 °F - 26.1 °F 28% 30.11 in 10.0 mi ENE 6.9 mph - N/A   Mostly Cloudy
3:53 PM 59.0 °F - 26.1 °F 28% 30.11 in 10.0 mi East 4.6 mph - N/A   Partly Cloudy
4:53 PM 57.9 °F - 28.0 °F 32% 30.10 in 10.0 mi East 6.9 mph - N/A   Clear
5:53 PM 55.0 °F - 30.0 °F 38% 30.07 in 10.0 mi ESE 11.5 mph - N/A   Clear
6:53 PM 51.1 °F - 35.1 °F 54% 30.05 in 10.0 mi ESE 11.5 mph - N/A   Clear
7:53 PM 48.9 °F - 36.0 °F 61% 30.06 in 10.0 mi East 8.1 mph - N/A   Clear
8:19 PM 50.0 °F - 35.6 °F 58% 30.06 in 10.0 mi ESE 8.1 mph - N/A   Mostly Cloudy
8:45 PM 50.0 °F - 35.6 °F 58% 30.05 in 10.0 mi ESE 8.1 mph - N/A   Scattered Clouds
8:53 PM 50.0 °F - 35.6 °F 58% 30.05 in 10.0 mi ESE 9.2 mph - N/A   Partly Cloudy
9:53 PM 51.1 °F - 37.9 °F 61% 30.04 in 10.0 mi East 9.2 mph - N/A   Partly Cloudy
10:00 PM 51.8 °F - 37.4 °F 58% 30.04 in 10.0 mi East 11.5 mph - N/A   Overcast
10:53 PM 52.0 °F - 37.9 °F 59% 30.03 in 10.0 mi East 12.7 mph - N/A   Overcast
11:53 PM 51.1 °F - 37.9 °F 61% 30.01 in 10.0 mi East 9.2 mph - N/A   Overcast